Location: Unspecified
(0.0000°N, 0.0000°E)
Time: 00:21:22
(UTC+00:00)

Orbcomm F1 (FM01) - Pass Details

Date: 22 May 2026
Orbit: 578 x 582 km, 70.0° (Epoch: 10 June)

Event Time Altitude Azimuth Distance (km) Brightness Sun altitude
Exits shadow 04:34:07 47° 244° (WSW) 775 7.1 -19.3°
Maximum altitude 04:34:55 56° 286° (WNW) 695 7.0 -19.1°
Drops below altitude 10° 04:39:05 10° 5° (N) 1,889 9.9 -18.1°
Sets 04:41:19 0° 9° (N) 2,786 10.8 -17.6°
